Lapse_Rate
5.5 5.5 5.6 5.7 5.9 5.7 5.8 5.9 5.9 6.0 6.1 6.0 5.9 5.8 5.9 5.9 6.1 6.2 6.1 6.0 6.0 6.0 5.8 5.8 6.0 6.0 6.0 5.9 5.8 5.7 5.6 5.6 5.6 5.6 5.6 5.7 5.6 5.6 5.6 5.8 5.7 5.7 5.7
5.6 6.0 5.9 5.9 6.0 5.9 5.9 5.8 6.0 6.1 6.1 6.2 6.0 6.2 6.1 6.2 6.4 6.4 6.4 6.3 6.2 6.1 5.9 5.9 5.8 5.8 5.8 5.9 5.8 5.7 5.7 5.7 5.6 5.5 5.6 5.6 5.6 5.6 5.6 5.7 5.7 5.8 5.8
5.9 5.8 5.8 5.9 6.0 6.0 6.0 5.9 6.0 6.1 6.1 6.2 6.1 6.2 6.3 6.3 6.5 6.5 6.4 6.5 6.4 6.3 6.2 6.2 6.2 6.2 6.1 5.9 5.9 5.8 5.9 5.8 5.9 5.6 5.6 5.6 5.5 5.6 5.6 5.7 5.8 5.9 5.9
5.4 5.7 5.8 5.9 5.9 5.8 5.8 5.9 6.0 6.1 6.4 6.4 6.4 6.4 6.2 6.4 6.4 6.5 6.7 6.5 6.4 6.5 6.5 6.5 6.4 6.3 6.1 6.0 6.0 5.9 5.9 5.9 5.9 5.6 5.0 5.6 5.6 5.8 5.9 6.0 5.9 6.0 6.0
5.9 5.9 5.9 5.9 6.0 6.0 6.2 6.3 6.4 6.3 6.4 6.5 6.4 6.2 6.0 6.1 6.3 6.5 6.6 6.5 6.6 6.7 6.6 6.5 6.5 6.4 6.3 6.3 6.2 6.2 6.1 6.1 6.1 5.7 5.9 5.8 5.9 5.9 6.0 5.9 6.1 6.1 6.1
5.8 5.9 6.0 6.1 6.3 6.3 6.4 6.3 6.5 6.4 6.5 6.4 6.3 6.1 6.1 6.2 6.3 6.3 6.3 6.4 6.5 6.6 6.6 6.7 6.6 6.6 6.4 6.4 6.3 6.2 6.2 6.2 6.2 6.2 6.1 6.0 6.0 6.2 6.1 6.2 6.2 6.2 6.2
5.2 5.9 6.1 6.2 6.2 6.4 6.4 6.4 6.4 6.5 6.4 6.3 6.2 6.2 6.2 6.2 6.4 6.5 6.5 6.5 6.4 6.7 6.6 6.6 6.6 6.5 6.6 6.4 6.3 6.4 6.3 6.3 5.8 6.2 6.1 6.1 6.3 6.3 6.3 6.3 6.3 6.3 6.3
5.1 6.0 6.1 6.1 6.2 6.3 6.4 6.3 6.5 6.5 6.4 6.4 6.3 6.3 6.3 6.4 6.5 6.7 6.7 6.6 6.6 6.6 6.6 6.6 6.6 6.4 6.4 6.4 6.3 6.3 6.2 6.3 5.7 6.1 6.2 6.3 6.3 6.4 6.3 6.4 6.4 6.3 6.3
5.7 5.5 6.0 6.0 6.1 6.1 6.3 6.4 6.6 6.6 6.4 6.5 6.2 6.2 6.3 6.4 6.4 6.5 6.5 6.5 6.5 6.6 6.6 6.5 6.5 6.4 6.4 6.4 6.2 6.2 6.1 6.1 6.0 5.6 6.3 6.4 6.5 6.5 6.5 6.5 6.3 6.1 6.2
4.9 5.6 5.9 5.8 5.8 5.9 6.1 6.3 6.4 6.5 6.3 6.2 6.0 6.0 6.0 6.2 6.3 6.4 6.4 6.4 6.3 6.4 6.5 6.4 6.4 6.3 6.2 6.2 6.2 6.2 6.1 6.2 6.1 6.1 6.5 6.6 6.7 6.6 6.6 6.4 6.3 6.3 6.4
5.4 5.4 5.2 5.7 5.9 6.0 6.1 6.3 6.4 6.3 6.2 6.0 6.1 6.0 6.0 6.1 6.3 6.4 6.5 6.3 6.2 6.3 6.3 6.4 6.3 6.2 6.0 6.0 6.1 6.1 6.3 5.7 5.8 6.6 6.6 6.7 6.6 6.6 6.6 6.5 6.4 6.7 6.6
5.0 5.4 5.1 4.8 5.7 5.8 6.1 6.2 6.2 6.2 6.1 6.1 6.0 6.1 5.8 5.9 6.3 6.3 6.2 6.2 6.1 6.3 6.1 6.2 6.1 6.0 5.8 5.6 5.6 6.3 6.4 6.4 6.6 6.7 6.7 6.8 6.7 6.8 6.8 6.7 6.7 6.9 6.8
4.9 4.8 4.8 5.3 5.3 5.3 6.0 5.6 5.2 5.8 6.1 6.0 6.1 6.2 6.0 6.1 6.1 5.9 5.7 5.9 5.9 5.9 6.1 6.0 5.7 5.5 5.4 5.7 5.2 5.1 6.3 6.6 6.7 6.8 6.8 6.9 6.9 7.0 6.9 6.9 6.9 7.0 7.1
4.8 4.7 4.6 5.1 5.5 5.5 5.7 5.0 5.0 5.1 5.5 5.9 6.1 6.1 5.9 5.7 5.4 5.3 5.2 5.7 6.0 5.3 5.5 6.3 5.7 6.0 6.1 5.6 5.4 5.3 5.9 6.7 6.8 6.8 6.9 7.0 7.2 7.2 7.2 7.2 7.1 7.2 7.2
4.8 4.7 5.1 5.9 5.9 6.1 5.7 5.1 5.0 5.4 5.6 5.9 5.8 6.2 5.6 5.5 5.6 5.7 5.9 6.2 5.3 5.6 5.2 5.3 5.3 5.7 6.2 5.5 5.5 5.7 6.7 7.0 7.0 7.0 7.1 7.2 7.3 7.4 7.4 7.4 7.4 7.5 7.5
4.7 4.6 5.7 5.7 5.9 6.0 6.4 6.2 5.7 6.0 5.5 5.4 5.6 5.8 5.7 5.8 5.6 6.0 5.8 5.2 5.1 5.4 5.0 5.3 5.5 5.3 5.5 6.4 6.9 6.7 6.8 7.0 7.3 7.2 7.2 7.3 7.5 7.5 7.5 7.5 7.6 7.7 7.7
4.5 5.0 5.8 5.4 6.0 6.2 6.2 6.0 5.9 5.5 5.5 5.3 5.6 5.7 5.5 5.4 5.6 5.4 5.5 5.9 5.3 5.5 5.5 5.6 5.4 5.4 5.6 6.2 6.7 7.0 6.9 7.2 7.2 7.4 7.4 7.4 7.5 7.5 7.5 7.6 7.7 7.7 7.7
4.6 5.6 5.5 4.6 5.9 6.1 6.2 6.0 4.9 5.1 5.4 5.3 5.7 5.5 5.6 5.5 5.6 5.4 5.3 4.8 5.4 4.9 5.0 5.3 5.5 5.6 5.7 5.9 6.0 6.0 7.1 7.2 7.4 7.6 7.4 7.6 7.8 7.5 7.6 7.6 7.7 7.7 7.6
5.3 5.7 4.9 4.9 5.5 5.8 5.9 5.2 5.5 5.8 5.4 4.9 5.3 5.4 5.7 5.6 5.5 5.3 5.4 5.6 5.3 4.9 5.2 5.6 5.3 5.9 5.9 6.0 6.4 6.7 7.1 7.3 7.5 7.5 7.7 7.8 7.7 7.5 7.6 7.7 7.8 7.7 7.6
5.5 5.6 5.3 5.2 5.9 5.7 5.2 5.3 5.4 5.7 5.2 5.2 5.4 5.5 5.7 5.7 5.6 5.5 5.5 5.8 6.0 5.1 5.3 5.6 5.4 5.7 5.7 6.2 6.1 6.5 6.6 7.5 7.6 7.7 7.7 7.7 7.6 7.8 7.5 7.8 8.0 7.6 7.5
5.2 5.7 5.8 5.8 5.8 5.8 5.8 5.0 4.7 5.4 5.0 5.3 5.2 5.6 5.8 5.8 5.6 5.4 5.6 5.7 5.4 5.7 6.0 5.9 5.4 5.7 5.6 6.2 6.1 6.2 7.3 7.6 7.4 7.7 7.0 6.6 7.5 6.8 7.6 7.8 7.7 7.5 7.4
4.3 5.5 5.7 5.7 5.7 5.5 5.6 5.1 5.0 5.4 5.0 5.2 5.2 5.6 5.6 5.6 5.7 5.5 5.6 5.5 6.0 5.6 5.9 5.9 5.9 5.4 5.5 6.1 6.2 6.4 6.5 6.7 6.8 6.7 7.1 7.2 7.2 6.8 7.5 7.6 7.6 7.5 7.2
4.2 4.9 5.6 5.7 5.7 5.5 5.2 5.4 5.4 5.6 5.1 5.3 5.3 5.5 5.6 5.4 5.5 5.7 5.5 5.4 5.4 5.3 5.6 5.8 5.8 5.5 5.6 6.6 6.7 6.3 6.5 6.8 6.7 6.9 7.5 7.0 7.4 6.9 7.1 7.6 7.2 7.5 7.2
4.4 4.1 5.2 5.3 5.6 5.5 5.4 5.5 5.4 5.5 5.5 5.6 5.5 5.0 5.4 5.4 5.4 5.5 5.6 5.5 5.6 5.3 5.5 5.5 5.7 5.8 5.7 5.7 5.9 6.4 6.7 6.8 6.7 6.7 6.6 7.0 7.5 7.0 7.3 6.7 6.6 6.5 6.9
4.7 4.2 4.7 5.2 5.5 5.6 5.4 5.1 5.3 5.6 5.4 5.2 5.1 5.3 5.6 5.6 5.5 5.6 5.8 5.6 5.6 5.5 5.5 5.7 5.6 5.8 5.4 5.5 6.1 5.8 6.2 6.4 6.7 6.7 6.9 6.7 6.8 6.6 6.6 6.4 6.4 6.4 6.4
4.9 4.5 4.3 5.3 5.2 5.3 5.3 5.2 5.2 5.2 4.9 4.9 5.0 5.2 5.1 5.4 5.5 5.5 5.7 5.8 5.5 5.6 5.8 5.8 5.8 5.8 6.0 5.8 5.4 5.5 6.0 6.2 6.1 6.3 6.5 6.6 6.7 6.6 6.5 6.4 6.2 6.2 6.3
Wind_Speed
12 17 11 11 10 9 9 11 12 15 16 16 16 16 17 17 18 18 17 17 17 17 17 17 17 16 18 18 18 17 17 16 16 17 20 19 17 19 18 15 19 20 18
15 20 13 12 10 10 10 11 12 14 14 15 15 16 16 17 18 17 17 17 16 17 17 17 17 17 17 17 18 16 14 10 12 15 22 22 21 20 21 23 21 18 17
16 18 15 11 11 11 10 11 10 13 14 14 14 15 16 16 17 17 16 17 17 18 17 17 17 17 16 16 17 15 11 8 5 1 4 20 19 19 20 19 18 17 17
19 20 16 11 11 10 9 10 11 12 12 12 13 14 15 15 16 17 17 17 16 16 17 17 16 16 16 16 15 13 9 6 7 11 12 18 19 16 16 17 15 14 17
15 18 16 12 10 9 10 9 11 10 12 12 13 14 14 14 16 17 17 16 15 14 13 14 15 15 14 15 13 12 7 7 9 18 19 16 16 15 17 15 16 17 18
12 20 15 12 11 10 9 11 11 11 12 13 12 13 14 15 16 15 15 16 14 16 14 13 12 11 13 14 13 10 6 7 3 18 19 17 16 14 14 14 14 13 13
17 19 17 12 12 11 11 11 11 11 11 12 13 14 14 15 15 15 15 15 14 16 16 15 15 14 14 13 12 8 4 8 14 16 18 15 14 12 11 11 11 12 12
16 21 17 13 12 11 12 11 11 11 10 12 14 14 16 15 15 14 14 14 14 14 14 13 12 13 12 12 10 5 3 9 10 18 17 14 10 10 12 12 13 11 11
21 16 18 17 15 12 12 12 12 13 14 14 15 16 15 14 14 13 13 13 13 12 12 13 11 12 11 10 8 4 1 4 9 11 18 14 9 9 10 10 10 9 9
16 16 10 14 15 17 16 13 14 14 15 15 15 15 16 15 14 14 14 11 10 10 10 10 10 9 9 9 6 5 6 8 7 15 13 10 8 8 8 8 7 8 7
9 10 12 12 14 12 15 14 14 14 15 17 13 14 19 18 16 13 14 9 8 7 6 6 4 8 9 11 11 9 8 3 7 15 12 7 6 6 6 6 6 6 6
14 8 6 13 13 9 15 13 13 12 15 13 8 12 12 15 15 14 11 8 6 6 7 8 9 11 15 12 10 10 6 7 7 12 11 5 4 4 4 4 4 5 5
14 13 16 7 12 9 13 12 13 16 14 11 8 11 12 14 15 14 12 12 10 12 9 12 10 13 7 7 8 8 9 7 8 11 10 7 3 2 3 3 4 5 6
9 9 13 9 7 9 7 8 9 11 12 12 12 9 9 5 6 6 6 8 4 7 3 5 11 7 7 3 11 10 6 9 8 13 9 6 4 2 1 2 3 5 6
11 10 12 10 7 4 5 8 8 11 3 15 11 6 7 7 6 7 2 8 3 5 7 4 8 5 6 6 6 5 9 7 7 12 10 7 5 3 1 1 3 4 6
12 12 12 12 12 8 8 6 9 13 11 12 11 8 4 8 0 8 6 4 3 10 8 9 6 3 6 11 4 5 6 10 5 7 14 9 8 5 4 3 3 4 6
11 13 12 12 11 10 9 10 6 14 10 9 13 7 4 5 1 2 5 3 6 5 6 6 5 4 6 9 6 3 9 5 8 5 5 14 11 10 8 6 4 5 6
14 12 12 11 13 12 10 9 6 8 10 9 13 10 6 5 2 2 5 3 5 5 4 1 2 3 3 6 3 4 4 9 7 4 6 4 6 13 10 9 7 6 7
14 13 10 9 12 12 9 4 6 7 9 8 10 12 6 6 3 8 5 6 6 3 1 1 3 5 3 2 8 6 3 7 8 8 7 5 3 2 10 9 9 6 6
14 13 10 11 11 9 5 4 5 4 6 7 8 12 7 7 3 5 5 3 9 2 3 7 6 5 5 4 5 5 4 4 3 6 7 7 8 8 7 1 6 9 8
15 13 12 12 11 8 8 7 3 3 2 3 12 8 5 6 5 2 5 5 8 6 6 3 4 4 1 1 6 6 5 6 5 5 5 4 6 3 3 5 2 6 4
15 15 13 13 11 8 8 2 0 5 5 4 9 8 7 7 3 4 3 2 4 4 0 3 5 6 4 3 5 2 5 4 5 6 3 3 1 4 7 4 1 3 5
16 15 14 12 12 10 2 2 3 3 3 5 7 6 7 6 6 2 3 4 1 2 2 1 3 5 3 4 5 4 3 1 5 6 5 4 4 4 2 5 2 3 3
17 15 15 14 12 10 7 4 7 6 7 1 7 3 6 5 6 6 4 2 3 6 4 2 2 7 6 3 2 5 4 4 4 4 5 5 4 7 4 7 2 8 1
19 15 15 14 12 10 10 6 7 9 5 8 2 8 2 7 6 7 5 5 2 7 3 3 1 5 6 7 3 2 3 2 2 8 0 7 4 3 3 3 6 6 4
17 14 15 14 12 11 9 8 6 11 4 5 6 4 7 7 8 5 6 4 4 7 3 4 0 3 5 7 7 6 5 4 6 3 2 2 3 3 1 3 4 4 6
Wind_Direction
136 121 132 119 116 113 106 96 89 85 84 82 86 87 87 95 93 94 95 98 98 93 90 86 83 83 84 81 81 82 84 88 94 99 92 79 73 70 71 82 93 87 88
124 120 127 120 123 111 97 92 91 88 87 90 92 92 91 95 95 96 97 97 96 95 93 93 94 89 87 81 80 78 81 90 103 108 102 89 69 65 65 67 73 84 84
121 121 126 123 111 107 102 92 90 89 87 86 90 95 95 100 100 103 100 101 99 97 93 94 91 82 83 80 76 76 65 46 42 88 296 81 75 71 73 74 81 85 83
126 138 121 120 110 101 101 96 96 93 92 95 93 94 97 100 100 100 96 90 88 88 90 92 92 91 85 81 79 73 62 41 347 19 96 77 81 73 77 80 80 90 93
100 105 109 110 111 107 100 107 99 97 98 92 88 90 95 102 102 100 99 96 91 90 92 94 89 84 88 83 80 74 42 351 333 78 62 71 81 71 68 75 86 73 65
108 99 113 117 119 119 106 97 92 86 86 85 93 102 103 107 108 105 98 90 86 87 87 99 94 87 89 83 83 74 32 327 216 92 93 75 72 75 73 70 74 76 76
151 118 119 119 118 115 113 97 93 88 88 97 102 100 109 108 109 105 99 92 89 90 85 82 88 86 84 87 84 73 12 351 52 94 85 80 79 79 80 82 81 77 69
134 111 119 112 108 115 110 102 101 92 100 106 109 102 102 112 113 112 103 94 96 92 84 83 89 88 87 88 88 75 328 310 107 100 87 80 77 71 62 64 62 64 59
87 110 134 122 111 109 108 109 103 95 98 101 104 103 103 105 113 114 106 97 96 88 81 76 85 91 93 90 95 128 201 330 66 98 102 85 82 74 68 65 62 59 52
103 113 113 131 134 132 114 109 101 99 101 106 112 123 125 125 125 128 122 103 99 90 81 76 85 118 117 124 151 187 234 253 109 91 77 81 82 75 69 64 59 52 42
98 111 124 143 95 115 119 115 114 122 125 125 138 157 167 136 130 132 85 112 108 106 101 92 117 162 166 175 180 205 234 27 70 91 91 89 85 77 69 59 51 40 26
133 143 107 125 147 138 110 159 136 145 137 114 156 179 190 72 92 106 122 137 146 168 166 169 209 216 196 187 167 196 112 93 72 86 94 116 93 84 66 49 29 11 3
143 172 113 141 182 128 126 161 153 164 118 121 145 95 109 133 144 139 147 155 160 190 208 190 205 222 33 10 91 79 113 113 109 88 111 125 127 107 70 38 8 350 347
134 137 110 138 92 113 135 176 152 117 139 137 110 125 140 139 85 14 96 120 204 101 143 7 95 66 74 313 54 70 59 88 95 103 120 151 163 140 60 12 348 342 335
147 134 123 122 70 104 167 136 97 115 197 113 158 127 145 88 114 96 7 61 354 130 129 108 89 97 155 134 97 93 92 71 94 106 101 160 175 177 202 297 325 324 320
136 130 129 117 138 184 104 114 149 96 151 153 137 95 93 124 275 142 183 155 351 35 46 58 355 126 129 122 85 73 96 106 70 103 125 138 173 182 203 238 274 295 304
144 130 154 140 144 128 141 163 189 159 144 126 104 146 91 117 19 327 82 305 91 108 185 178 196 189 135 124 129 142 114 122 113 140 132 141 150 183 193 207 234 267 288
135 142 169 142 142 156 141 192 156 155 122 143 149 150 146 105 202 239 216 120 114 240 163 55 190 102 81 91 62 100 109 119 132 157 102 118 148 142 178 197 218 239 261
136 152 175 133 148 133 167 175 138 136 165 157 149 142 130 148 163 289 5 99 242 248 316 192 76 330 169 156 151 149 148 127 200 105 130 163 115 330 136 172 207 214 240
148 159 159 157 140 142 167 193 146 154 248 135 89 94 155 145 165 265 102 127 261 309 108 37 356 8 340 344 348 72 97 129 146 154 148 169 133 188 114 70 229 195 200
158 163 158 153 156 165 163 173 173 117 94 160 103 127 138 144 143 221 216 190 261 132 39 290 230 186 84 208 286 141 124 175 183 155 173 165 138 179 109 114 4 351 192
158 163 168 151 171 211 190 59 62 168 180 156 141 152 191 156 169 186 332 251 84 109 82 343 323 311 104 25 317 284 161 190 159 132 135 184 18 133 130 157 92 62 324
160 166 172 162 170 226 195 191 191 68 133 168 133 182 174 199 171 343 239 10 183 299 156 272 324 319 63 115 325 331 341 205 160 158 191 116 190 177 111 191 166 105 315
159 173 165 180 176 202 215 208 120 217 204 131 194 131 149 193 193 174 209 227 251 334 67 218 324 323 339 125 162 62 12 1 330 162 152 117 200 218 98 295 93 140 281
158 173 171 178 187 202 203 222 194 224 296 194 95 138 233 158 215 202 195 200 237 285 107 323 320 327 321 327 61 170 329 194 6 331 224 144 166 201 164 225 14 331 109
166 165 170 177 188 202 186 204 219 293 332 14 138 165 185 171 184 195 183 214 208 285 162 237 107 283 347 352 349 309 339 60 292 346 357 227 0 155 344 167 107 330 331